SABESAZS

Guest
Details From SABE - Aeroparque Jorge Newbery
To SAZS - San Carlos De Bariloche
Flight Number -
Tags Generated
Created
Modified
Stats Distance 722 nm / 1,337 km
Max Altitude 0 ft / 0 m
Waypoints 3
Social Downloads 4
Likes 0
Share VATSIM

Download

Looking for another format? Having issues loading an existing format? Contact us
Advertisement - Login to hide

Notes

Generated

Route

SABE R1349 SAZS

ID Type Via Altitude Latitude Longitude Leg Dist Tot Dist Heading (true) Name
O SABE APT - 0 ft / 0 m -34.55416˚ -58.42526˚ - 0 nm - -
R1349 FIX - 0 ft / 0 m -41.15557˚ -71.14482˚ 720 nm 720 nm 233° / 241° -
O SAZS APT - 0 ft / 0 m -41.14677˚ -71.17026˚ 1 nm 721 nm 295° / 295° -

Altitude Profile

Advertisement - Login to hide

Weather

Temperature
Clouds and Precipitation
Forecast for 2017-04-28 00:00 UTC. Updated an hour ago
Winds

SABE

Details ICAO SABE (AEP)
Name Aeroparque Jorge Newbery
Region Argentina
Timezone Unknown (UTC+0.0)
Stats Elevation 17 ft / 5 m (AMSL)
Location -34.559414° -58.415749°
Runways 1
Magnetic Variation 8.876° W

METAR

SABE 272000Z 29012G22KT CAVOK 24/00 Q1013

Decode

TAF

TAF SABE 271700Z 2718/2818 29015K CAVOK TX25/2818Z TN14/2810Z

Decode

Departure Runways

ID Width Length Bearing (true) Bearing (mag) Surface Threshold Offset Overrun Length
13 131 ft / 40 m 6,882 ft / 2,098 m 123.87° 132.75° Concrete 0 ft / 0 m 791 ft / 241 m
31 131 ft / 40 m 6,882 ft / 2,098 m 303.86° 312.74° Concrete 991 ft / 302 m 0 ft / 0 m

SAZS

Details ICAO SAZS (BRC)
Name SAN CARLOS DE BARILOCHE
Region Argentina
Timezone America/Argentina/Salta (UTC-3.0)
Stats Elevation 2,776 ft / 846 m (AMSL)
Location -41.151172° -71.157541°
Runways 1
Magnetic Variation 6.735° E

METAR

SAZS 272000Z 32020KT 9999 -DZ SCT010 OVC025 11/09 Q1010

Decode

TAF

TAF SAZS 271700Z 2718/2818 30020KT 9999 SCT030 SCT050 TX15/2818Z TN05/2809Z TEMPO 2718/2722 8000 RADZ BKN020 BKN045 BECMG 2722/2800 27005KT 9999 BKN030 BECMG 2803/2805 2000 BR SCT015 TEMPO 2806/2811 0500 FG BKN008 BECMG 2812/2814 29020KT 9999 SCT025

Decode

Destination Runways

ID Width Length Bearing (true) Bearing (mag) Surface Threshold Offset Overrun Length
11 157 ft / 48 m 7,693 ft / 2,345 m 114.70° 107.97° Asphalt 0 ft / 0 m 0 ft / 0 m
29 157 ft / 48 m 7,693 ft / 2,345 m 294.68° 287.95° Asphalt 0 ft / 0 m 0 ft / 0 m

Approach Navaids

Runway Type Ident Frequency Range Bearing (true) Bearing (mag) Slope Elevation
29 Localiser BR 109.50 MHz 18 nm / 33 km 294.79° 288.06° - 2,776 ft / 846 m (AMSL)
29 Glidescope BR 109.50 MHz 10 nm / 19 km 294.69° 287.95° 3.00° 2,776 ft / 846 m (AMSL)
29 DME BR 109.50 MHz 18 nm / 33 km - - - 2,776 ft / 846 m (AMSL)

Popular Alternatives